Regional Weather Roundup
Issued by NWS

Home | Current Version | Previous Version | Graphics & Text | Print | Product List | Glossary On
Versions: 1 2 3 4 5 6 7 8 9 10 11 12 13 14 15 16 17 18 19 20 21 22 23 24 25 26 27 28 29 30 31 32 33 34 35 36 37 38 39 40 41 42 43 44 45 46 47 48 49 50
000
ASUS43 KBIS 230201
RWRND

NORTH DAKOTA REGIONAL WEATHER ROUNDUP
NATIONAL WEATHER SERVICE BISMARCK ND
900 PM CDT FRI MAY 22 2015

NOTE: "FAIR" INDICATES FEW OR NO CLOUDS BELOW 12,000 FEET WITH NO
SIGNIFICANT WEATHER AND/OR OBSTRUCTIONS TO VISIBILITY.


NDZ001>003-009>011-017-230300-
NORTHWEST NORTH DAKOTA

CITY           SKY/WX    TMP DP  RH WIND       PRES   REMARKS
WILLISTON      PTCLDY    71  31  22 SE12      30.03S
MINOT          PTCLDY    68  36  30 SE6       30.06S
MINOT AFB      PTCLDY    71  37  29 S6        30.05S
$$

NDZ018>021-031>035-040>046-230300-
SOUTHWEST NORTH DAKOTA

CITY           SKY/WX    TMP DP  RH WIND       PRES   REMARKS
BISMARCK       CLOUDY    66  41  40 S9        30.08R
DICKINSON      MOCLDY    60  37  42 SE10      30.05R
GARRISON         N/A     65  40  39 S5        30.07S
HETTINGER ARPT MOCLDY    59  35  40 SE14      30.07R
$$

NDZ004>008-012>016-024-026-027-054-230300-
NORTHEAST NORTH DAKOTA

CITY           SKY/WX    TMP DP  RH WIND       PRES   REMARKS
GRAND FORKS    PTCLDY    63  44  50 S8        30.10S
GRND FRKS AFB  CLEAR     64  43  46 S7        30.11R
DEVILS LAKE    CLEAR     66  34  30 S8        30.10S
$$

NDZ022-023-025-028>030-036>039-047>053-230300-
SOUTHEAST NORTH DAKOTA

CITY           SKY/WX    TMP DP  RH WIND       PRES   REMARKS
FARGO          PTCLDY    69  40  34 SE6       30.12S
JAMESTOWN      PTCLDY    61  43  51 SE7       30.10S
$$



USA.gov is the U.S. government's official web portal to all federal, state and local government web resources and services.